�������l�o���
Date,Time,MP-1(��Sv/h),MP-2(��Sv/h),MP-3(��Sv/h),MP-4(��Sv/h),MP-5(��Sv/h),MP-6(��Sv/h),MP-7(��Sv/h),MP-8(��Sv/h),����,����(m/s),���J
2018/11/28,00:00,0.788,1.191,0.837,1.483,1.077,0.456,0.808,0.765,��,5.9,��
2018/11/28,00:10,0.790,1.191,0.835,1.483,1.077,0.458,0.807,0.764,��,8.3,��
2018/11/28,00:20,0.790,1.188,0.836,1.487,1.077,0.459,0.804,0.763,��,8.3,��
2018/11/28,00:30,0.788,1.189,0.836,1.487,1.076,0.457,0.809,0.761,��,7.2,��
2018/11/28,00:40,0.788,1.187,0.837,1.491,1.074,0.460,0.808,0.763,��,7.2,��
2018/11/28,00:50,0.788,1.191,0.836,1.489,1.077,0.459,0.809,0.761,��,5.2,��
2018/11/28,01:00,0.788,1.189,0.838,1.492,1.076,0.458,0.808,0.763,��,2.8,��
2018/11/28,01:10,0.788,1.190,0.836,1.494,1.075,0.459,0.807,0.763,���쐼,1.7,��
2018/11/28,01:20,0.789,1.192,0.836,1.489,1.076,0.458,0.809,0.763,���k��,4.5,��
2018/11/28,01:30,0.789,1.191,0.836,1.493,1.076,0.460,0.807,0.763,��,6.4,��
2018/11/28,01:40,0.791,1.188,0.836,1.495,1.076,0.459,0.807,0.763,���k��,5.7,��
2018/11/28,01:50,0.787,1.193,0.837,1.493,1.077,0.458,0.809,0.763,��,3.6,��
2018/11/28,02:00,0.789,1.190,0.835,1.491,1.077,0.460,0.807,0.764,�k��,3.4,��
2018/11/28,02:10,0.790,1.191,0.838,1.493,1.074,0.459,0.809,0.762,�k�k��,2.0,��
2018/11/28,02:20,0.788,1.193,0.837,1.491,1.075,0.459,0.809,0.761,�k��,1.7,��
2018/11/28,02:30,0.790,1.192,0.834,1.493,1.075,0.459,0.807,0.764,���k��,2.9,��
2018/11/28,02:40,0.789,1.190,0.834,1.495,1.075,0.459,0.810,0.761,���쐼,0.6,��
2018/11/28,02:50,0.789,1.190,0.837,1.494,1.076,0.458,0.808,0.761,���k��,1.2,��
2018/11/28,03:00,0.788,1.189,0.836,1.495,1.075,0.458,0.806,0.761,�k��,1.1,��
2018/11/28,03:10,0.789,1.189,0.836,1.493,1.075,0.459,0.806,0.761,�k��,0.9,��
2018/11/28,03:20,0.789,1.191,0.834,1.494,1.075,0.460,0.809,0.762,���k��,1.5,��
2018/11/28,03:30,0.789,1.189,0.836,1.496,1.074,0.458,0.807,0.762,���k��,1.5,��
2018/11/28,03:40,0.788,1.189,0.836,1.494,1.076,0.456,0.807,0.762,���k��,1.2,��
2018/11/28,03:50,0.786,1.191,0.835,1.491,1.074,0.460,0.806,0.761,���k��,1.7,��
2018/11/28,04:00,0.788,1.190,0.835,1.492,1.076,0.458,0.807,0.762,��,1.7,��
2018/11/28,04:10,0.787,1.189,0.834,1.492,1.075,0.459,0.809,0.763,���k��,1.7,��
2018/11/28,04:20,0.787,1.188,0.835,1.490,1.075,0.459,0.805,0.762,�k,1.7,��
2018/11/28,04:30,0.787,1.187,0.835,1.493,1.075,0.457,0.807,0.760,�k�k��,1.4,��
2018/11/28,04:40,0.788,1.190,0.834,1.493,1.076,0.457,0.806,0.761,�k��,1.2,��
2018/11/28,04:50,0.786,1.186,0.833,1.492,1.074,0.458,0.806,0.761,�k,1.9,��
2018/11/28,05:00,0.788,1.188,0.835,1.491,1.074,0.458,0.806,0.764,�k�k��,0.6,��
2018/11/28,05:10,0.788,1.188,0.835,1.490,1.075,0.457,0.808,0.762,�쓌,1.1,��
2018/11/28,05:20,0.788,1.189,0.835,1.489,1.075,0.458,0.805,0.762,�쓌,1.2,��
2018/11/28,05:30,0.789,1.188,0.835,1.492,1.075,0.458,0.806,0.760,���쓌,0.6,��
2018/11/28,05:40,0.787,1.188,0.835,1.492,1.074,0.459,0.808,0.762,�쓌,0.9,��
2018/11/28,05:50,0.787,1.188,0.834,1.490,1.074,0.458,0.806,0.762,��쓌,0.8,��
2018/11/28,06:00,0.788,1.188,0.835,1.493,1.075,0.457,0.806,0.761,��쓌,1.5,��
2018/11/28,06:10,0.787,1.188,0.834,1.493,1.075,0.457,0.808,0.761,��쓌,2.6,��
2018/11/28,06:20,0.789,1.187,0.834,1.492,1.076,0.457,0.809,0.763,�쓌,2.6,��
2018/11/28,06:30,0.787,1.187,0.834,1.490,1.074,0.458,0.808,0.761,���쓌,1.4,��
2018/11/28,06:40,0.787,1.187,0.835,1.491,1.075,0.457,0.805,0.760,�쐼,3.1,��
2018/11/28,06:50,0.788,1.188,0.835,1.490,1.076,0.460,0.807,0.763,���쐼,3.4,��
2018/11/28,07:00,0.789,1.188,0.837,1.491,1.075,0.458,0.808,0.763,�쐼,2.6,��
2018/11/28,07:10,0.788,1.188,0.835,1.490,1.076,0.458,0.806,0.761,�쐼,2.3,��
2018/11/28,07:20,0.785,1.188,0.836,1.491,1.074,0.457,0.808,0.760,��쐼,3.1,��
2018/11/28,07:30,0.788,1.189,0.836,1.492,1.075,0.458,0.808,0.764,��쐼,3.3,��
2018/11/28,07:40,0.789,1.188,0.834,1.491,1.073,0.458,0.806,0.762,�쐼,2.6,��
2018/11/28,07:50,0.790,1.188,0.834,1.490,1.075,0.458,0.806,0.762,��쐼,2.0,��
2018/11/28,08:00,0.787,1.189,0.835,1.492,1.077,0.458,0.808,0.762,��쐼,2.3,��
2018/11/28,08:10,0.789,1.187,0.832,1.493,1.077,0.458,0.808,0.762,��쐼,2.5,��
2018/11/28,08:20,0.787,1.188,0.836,1.491,1.075,0.457,0.809,0.763,��,1.7,��
2018/11/28,08:30,0.788,1.188,0.834,1.495,1.076,0.458,0.808,0.762,��,1.9,��
2018/11/28,08:40,0.787,1.187,0.833,1.491,1.077,0.458,0.808,0.763,��쐼,2.3,��
2018/11/28,08:50,0.790,1.185,0.834,1.490,1.077,0.459,0.808,0.763,��쐼,2.6,��
2018/11/28,09:00,0.788,1.188,0.836,1.492,1.078,0.458,0.807,0.765,��,4.5,��
2018/11/28,09:10,0.791,1.185,0.836,1.491,1.076,0.459,0.807,0.763,���k��,6.4,��
2018/11/28,09:20,0.792,1.185,0.835,1.491,1.075,0.458,0.807,0.764,���k��,6.5,��
2018/11/28,09:30,0.789,1.185,0.836,1.491,1.079,0.458,0.806,0.763,���k��,6.3,��
2018/11/28,09:40,0.788,1.182,0.835,1.493,1.076,0.459,0.807,0.764,���k��,6.2,��
2018/11/28,09:50,0.789,1.183,0.836,1.492,1.077,0.459,0.806,0.764,���k��,5.6,��
2018/11/28,10:00,0.790,1.184,0.837,1.493,1.078,0.457,0.809,0.765,���k��,5.7,��
2018/11/28,10:10,0.789,1.182,0.836,1.494,1.077,0.457,0.807,0.764,��,3.8,��
2018/11/28,10:20,0.790,1.185,0.836,1.495,1.077,0.457,0.808,0.765,��,3.8,��
2018/11/28,10:30,0.789,1.186,0.834,1.495,1.078,0.458,0.807,0.764,���k��,2.9,��
2018/11/28,10:40,0.790,1.185,0.835,1.495,1.076,0.456,0.808,0.764,��,2.2,��
2018/11/28,10:50,0.791,1.182,0.834,1.497,1.076,0.459,0.808,0.765,���k��,5.0,��
2018/11/28,11:00,0.793,1.184,0.834,1.495,1.077,0.456,0.809,0.765,��,5.0,��
2018/11/28,11:10,0.791,1.187,0.835,1.498,1.078,0.456,0.810,0.765,��,5.5,��
2018/11/28,11:20,0.790,1.185,0.836,1.496,1.076,0.454,0.809,0.764,���쐼,4.6,��
2018/11/28,11:30,0.791,1.184,0.835,1.499,1.078,0.458,0.811,0.765,��,4.5,��
2018/11/28,11:40,0.790,1.186,0.835,1.498,1.079,0.458,0.809,0.763,���k��,8.5,��
2018/11/28,11:50,0.793,1.188,0.836,1.496,1.077,0.457,0.809,0.763,���k��,7.8,��
2018/11/28,12:00,0.792,1.189,0.838,1.498,1.078,0.456,0.809,0.764,���k��,7.1,��
2018/11/28,12:10,0.791,1.189,0.836,1.498,1.078,0.459,0.809,0.762,��,8.7,��
2018/11/28,12:20,0.791,1.191,0.837,1.498,1.078,0.456,0.810,0.762,��,7.4,��
2018/11/28,12:30,0.792,1.189,0.837,1.499,1.080,0.459,0.808,0.763,���쐼,7.1,��
2018/11/28,12:40,0.791,1.187,0.835,1.498,1.080,0.456,0.809,0.761,���쐼,6.2,��
2018/11/28,12:50,0.792,1.185,0.836,1.498,1.079,0.459,0.808,0.763,��,7.1,��
2018/11/28,13:00,0.792,1.188,0.837,1.499,1.079,0.459,0.809,0.762,���k��,7.0,��
2018/11/28,13:10,0.791,1.185,0.837,1.496,1.079,0.460,0.808,0.761,��,5.5,��
2018/11/28,13:20,0.794,1.188,0.837,1.499,1.077,0.459,0.809,0.761,���k��,5.2,��
2018/11/28,13:30,0.793,1.188,0.834,1.497,1.080,0.459,0.806,0.763,���k��,5.3,��
2018/11/28,13:40,0.792,1.186,0.838,1.499,1.079,0.459,0.806,0.761,��,4.2,��
2018/11/28,13:50,0.790,1.187,0.835,1.501,1.081,0.459,0.806,0.761,���k��,6.9,��
2018/11/28,14:00,0.791,1.184,0.836,1.499,1.081,0.459,0.806,0.761,���k��,7.3,��
2018/11/28,14:10,0.791,1.187,0.839,1.499,1.080,0.459,0.807,0.761,�k��,5.1,��
2018/11/28,14:20,0.790,1.186,0.836,1.496,1.082,0.459,0.806,0.763,���k��,4.0,��
2018/11/28,14:30,0.793,1.185,0.836,1.496,1.083,0.459,0.804,0.761,���k��,5.0,��
2018/11/28,14:40,0.791,1.186,0.837,1.501,1.085,0.461,0.808,0.761,�k��,4.1,��
2018/11/28,14:50,0.792,1.189,0.836,1.498,1.081,0.459,0.808,0.761,�k��,4.2,��
2018/11/28,15:00,0.790,1.186,0.834,1.491,1.081,0.460,0.808,0.762,�k��,4.0,��
2018/11/28,15:10,0.791,1.189,0.837,1.484,1.077,0.460,0.809,0.764,�k��,5.2,��
2018/11/28,15:20,0.790,1.190,0.836,1.500,1.080,0.460,0.807,0.763,���k��,6.8,��
2018/11/28,15:30,0.791,1.189,0.834,1.498,1.077,0.460,0.808,0.762,���k��,6.5,��
2018/11/28,15:40,0.790,1.190,0.836,1.492,1.080,0.459,0.809,0.762,���k��,5.1,��
2018/11/28,15:50,0.791,1.195,0.834,1.501,1.078,0.460,0.809,0.762,�k,2.3,��
2018/11/28,16:00,0.789,1.194,0.834,1.501,1.078,0.461,0.806,0.762,�k,2.3,��
2018/11/28,16:10,0.789,1.194,0.836,1.501,1.080,0.461,0.807,0.761,�k�k��,3.8,��
2018/11/28,16:20,0.791,1.197,0.837,1.500,1.080,0.460,0.809,0.764,�k�k��,2.8,��
2018/11/28,16:30,0.792,1.197,0.837,1.500,1.079,0.461,0.807,0.765,�k��,2.0,��
2018/11/28,16:40,0.790,1.195,0.838,1.499,1.080,0.460,0.806,0.765,�k�k��,2.2,��
2018/11/28,16:50,0.793,1.196,0.838,1.499,1.082,0.459,0.805,0.765,�k��,1.4,��
2018/11/28,17:00,0.794,1.195,0.839,1.498,1.083,0.460,0.809,0.764,-,CALM,��
2018/11/28,17:10,0.794,1.196,0.839,1.498,1.084,0.459,0.808,0.763,���쐼,0.6,��
2018/11/28,17:20,0.795,1.196,0.838,1.500,1.081,0.459,0.808,0.764,���쐼,1.7,��
2018/11/28,17:30,0.793,1.194,0.837,1.499,1.082,0.459,0.811,0.765,��,2.2,��
2018/11/28,17:40,0.793,1.197,0.839,1.498,1.083,0.459,0.807,0.764,��,3.0,��
2018/11/28,17:50,0.793,1.194,0.838,1.498,1.083,0.459,0.811,0.764,���k��,3.0,��
2018/11/28,18:00,0.793,1.196,0.840,1.490,1.083,0.459,0.809,0.763,�k��,3.4,��
2018/11/28,18:10,0.793,1.197,0.836,1.490,1.081,0.460,0.809,0.766,�k��,2.6,��
2018/11/28,18:20,0.793,1.199,0.837,1.492,1.082,0.459,0.809,0.762,�k��,2.3,��
2018/11/28,18:30,0.792,1.196,0.838,1.491,1.084,0.459,0.811,0.764,�k,2.9,��
2018/11/28,18:40,0.793,1.195,0.839,1.491,1.082,0.458,0.808,0.766,�k,3.3,��
2018/11/28,18:50,0.791,1.195,0.837,1.489,1.082,0.461,0.809,0.764,�k�k��,3.5,��
2018/11/28,19:00,0.791,1.196,0.836,1.491,1.082,0.458,0.808,0.763,�k�k��,4.6,��
2018/11/28,19:10,0.793,1.191,0.839,1.489,1.081,0.459,0.807,0.766,�k�k��,8.2,��
2018/11/28,19:20,0.792,1.197,0.837,1.489,1.085,0.459,0.810,0.765,�k�k��,9.0,��
2018/11/28,19:30,0.790,1.196,0.838,1.489,1.082,0.457,0.808,0.765,�k�k��,9.8,��
2018/11/28,19:40,0.792,1.198,0.839,1.489,1.083,0.458,0.807,0.764,�k�k��,9.5,�L
2018/11/28,19:50,0.790,1.196,0.837,1.492,1.083,0.457,0.807,0.765,�k�k��,8.4,�L
2018/11/28,20:00,0.792,1.197,0.838,1.491,1.081,0.457,0.805,0.763,�k,9.0,��
2018/11/28,20:10,0.792,1.195,0.838,1.490,1.079,0.458,0.805,0.764,�k�k��,8.4,��
2018/11/28,20:20,0.792,1.197,0.839,1.495,1.079,0.456,0.807,0.765,�k,8.5,��
2018/11/28,20:30,0.791,1.192,0.838,1.489,1.078,0.457,0.806,0.764,�k�k��,8.4,�L
2018/11/28,20:40,0.791,1.196,0.838,1.497,1.079,0.456,0.806,0.765,�k�k��,9.6,�L
2018/11/28,20:50,0.791,1.195,0.838,1.496,1.081,0.456,0.808,0.764,�k,7.4,��
2018/11/28,21:00,0.791,1.194,0.837,1.495,1.079,0.457,0.806,0.764,�k,8.3,��
2018/11/28,21:10,0.791,1.196,0.838,1.494,1.080,0.457,0.806,0.765,�k,6.2,�L
2018/11/28,21:20,0.791,1.196,0.838,1.492,1.081,0.458,0.807,0.764,�k,7.9,�L
2018/11/28,21:30,0.794,1.196,0.838,1.493,1.082,0.456,0.806,0.764,�k�k��,8.9,��
2018/11/28,21:40,0.791,1.195,0.837,1.491,1.083,0.458,0.808,0.764,�k,8.0,��
2018/11/28,21:50,0.791,1.197,0.839,1.492,1.084,0.458,0.806,0.763,�k,7.2,��
2018/11/28,22:00,0.793,1.195,0.837,1.489,1.081,0.456,0.807,0.764,�k�k��,7.0,��
2018/11/28,22:10,0.790,1.197,0.840,1.490,1.080,0.458,0.807,0.764,�k,8.2,�L
2018/11/28,22:20,0.791,1.197,0.835,1.491,1.083,0.458,0.806,0.766,�k�k��,8.4,��
2018/11/28,22:30,0.791,1.197,0.835,1.492,1.082,0.458,0.806,0.764,�k,7.9,�L
2018/11/28,22:40,0.791,1.196,0.838,1.491,1.080,0.456,0.806,0.764,�k,9.0,�L
2018/11/28,22:50,0.790,1.195,0.839,1.492,1.082,0.459,0.807,0.764,�k�k��,7.8,�L
2018/11/28,23:00,0.790,1.195,0.838,1.493,1.082,0.458,0.806,0.763,�k,8.7,�L
2018/11/28,23:10,0.792,1.197,0.838,1.495,1.084,0.457,0.806,0.764,�k,7.3,�L
2018/11/28,23:20,0.790,1.197,0.838,1.491,1.083,0.457,0.805,0.766,�k�k��,7.6,�L
2018/11/28,23:30,0.791,1.195,0.839,1.493,1.083,0.456,0.807,0.763,�k�k��,8.4,�L
2018/11/28,23:40,0.793,1.200,0.838,1.493,1.082,0.456,0.807,0.764,�k,8.4,��
2018/11/28,23:50,0.793,1.196,0.839,1.493,1.082,0.457,0.807,0.763,�k,8.0,��
